Starlink 35928

operational
NORAD ID: 66528 Int'l Des: 2025-265 Owner: SPXS Country: US Constellation: starlink
LEOCIRCULAR

About Starlink 35928

Description loading...

Live Position

Loading 3D Globe...

Upcoming Passes

Altitude History

Altitude vs Time

uPlot chart will show altitude changes over time

Two-Line Element Set

1 66528U 25265N 26039.45099832 .00024497 00000-0 89624-3 0 9995
2 66528 42.9985 82.8934 0001948 271.1370 88.9258 15.27599115 12641
Epoch: Feb 8, 2026 • Age: 53 hours

Current Status

Altitude 494.5 km
Velocity 7.62 km/s
Sub-Earth Point -42.36°S, 49.88°W
Launch Date Nov 19, 2025
Age 0.2 years
Type internet

Technical Details

Classification Payload
Mass 575.00 kg
Dry Mass 530.00 kg
Total Mass 575.00 kg
Length 0.30 m
Diameter 4.10 m
Span 29.00 m
Shape Box + pan
Manufacturer SPXS
Bus Type Starlink V2MO
Phase Status In Orbit
Owner/State SPXS/US

Large Constellations

Loading constellations...